"Date","Average Accumulated Water Year PPT (in)","Average SWE (in)"
10/01/1981,0.000,0.000
10/02/1981,0.000,0.000
10/03/1981,0.059,0.000
10/04/1981,0.335,0.018
10/05/1981,0.339,0.019
10/06/1981,0.340,0.017
10/07/1981,0.342,0.005
10/08/1981,0.342,0.002
10/09/1981,0.342,0.002
10/10/1981,0.361,0.003
10/11/1981,0.397,0.004
10/12/1981,0.885,0.211
10/13/1981,1.309,0.618
10/14/1981,1.310,0.569
10/15/1981,1.310,0.434
10/16/1981,1.311,0.291
10/17/1981,1.320,0.225
10/18/1981,1.321,0.215
10/19/1981,1.321,0.161
10/20/1981,1.383,0.129
10/21/1981,1.541,0.314
10/22/1981,1.545,0.317
10/23/1981,1.557,0.325
10/24/1981,1.740,0.364
10/25/1981,1.829,0.373
10/26/1981,1.829,0.255
10/27/1981,1.829,0.209
10/28/1981,1.848,0.185
10/29/1981,1.895,0.165
10/30/1981,1.928,0.191
10/31/1981,1.929,0.191
11/01/1981,1.929,0.178
11/02/1981,1.929,0.156
11/03/1981,1.929,0.137
11/04/1981,1.929,0.118
11/05/1981,1.929,0.118
11/06/1981,1.929,0.116
11/07/1981,1.931,0.114
11/08/1981,1.931,0.113
11/09/1981,1.931,0.111
11/10/1981,1.931,0.108
11/11/1981,1.931,0.104
11/12/1981,1.932,0.101
11/13/1981,1.937,0.096
11/14/1981,1.969,0.109
11/15/1981,2.006,0.112
11/16/1981,2.008,0.114
11/17/1981,2.027,0.111
11/18/1981,2.115,0.175
11/19/1981,2.220,0.266
11/20/1981,2.221,0.268
11/21/1981,2.223,0.252
11/22/1981,2.255,0.233
11/23/1981,2.286,0.270
11/24/1981,2.353,0.286
11/25/1981,2.486,0.440
11/26/1981,2.492,0.445
11/27/1981,2.497,0.451
11/28/1981,2.497,0.451
11/29/1981,2.497,0.451
11/30/1981,2.497,0.451
12/01/1981,2.498,0.452
12/02/1981,2.509,0.461
12/03/1981,2.518,0.466
12/04/1981,2.518,0.466
12/05/1981,2.518,0.436
12/06/1981,2.519,0.385
12/07/1981,2.519,0.364
12/08/1981,2.519,0.358
12/09/1981,2.521,0.358
12/10/1981,2.521,0.342
12/11/1981,2.523,0.342
12/12/1981,2.526,0.348
12/13/1981,2.529,0.351
12/14/1981,2.546,0.375
12/15/1981,2.548,0.378
12/16/1981,2.701,0.559
12/17/1981,2.726,0.588
12/18/1981,2.726,0.588
12/19/1981,2.727,0.589
12/20/1981,2.750,0.490
12/21/1981,2.764,0.492
12/22/1981,2.781,0.526
12/23/1981,2.828,0.586
12/24/1981,2.834,0.592
12/25/1981,2.890,0.656
12/26/1981,2.917,0.684
12/27/1981,2.928,0.696
12/28/1981,2.980,0.774
12/29/1981,3.011,0.812
12/30/1981,3.012,0.814
12/31/1981,3.015,0.818
01/01/1982,3.026,0.832
01/02/1982,3.030,0.836
01/03/1982,3.030,0.836
01/04/1982,3.038,0.847
01/05/1982,3.119,0.934
01/06/1982,3.121,0.935
01/07/1982,3.121,0.935
01/08/1982,3.140,0.956
01/09/1982,3.169,0.987
01/10/1982,3.252,1.094
01/11/1982,3.326,1.197
01/12/1982,3.371,1.253
01/13/1982,3.500,1.409
01/14/1982,3.502,1.410
01/15/1982,3.558,1.474
01/16/1982,3.595,1.515
01/17/1982,3.606,1.529
01/18/1982,3.612,1.536
01/19/1982,3.655,1.580
01/20/1982,3.740,1.679
01/21/1982,3.783,1.720
01/22/1982,3.840,1.785
01/23/1982,3.997,1.963
01/24/1982,4.006,1.969
01/25/1982,4.020,1.977
01/26/1982,4.020,1.887
01/27/1982,4.044,1.854
01/28/1982,4.045,1.855
01/29/1982,4.047,1.857
01/30/1982,4.049,1.858
01/31/1982,4.049,1.854
02/01/1982,4.146,1.940
02/02/1982,4.232,2.052
02/03/1982,4.292,2.102
02/04/1982,4.294,2.104
02/05/1982,4.307,2.120
02/06/1982,4.325,2.131
02/07/1982,4.331,2.135
02/08/1982,4.335,2.139
02/09/1982,4.335,2.139
02/10/1982,4.335,2.139
02/11/1982,4.335,2.139
02/12/1982,4.335,2.139
02/13/1982,4.335,2.139
02/14/1982,4.335,1.893
02/15/1982,4.335,1.764
02/16/1982,4.339,1.603
02/17/1982,4.339,1.494
02/18/1982,4.341,1.411
02/19/1982,4.346,1.341
02/20/1982,4.369,1.291
02/21/1982,4.395,1.213
02/22/1982,4.895,1.306
02/23/1982,5.025,1.452
02/24/1982,5.041,1.465
02/25/1982,5.047,1.469
02/26/1982,5.047,1.469
02/27/1982,5.048,1.469
02/28/1982,5.049,1.444
03/01/1982,5.051,1.365
03/02/1982,5.056,1.372
03/03/1982,5.155,1.473
03/04/1982,5.193,1.500
03/05/1982,5.198,1.504
03/06/1982,5.216,1.514
03/07/1982,5.218,1.516
03/08/1982,5.285,1.567
03/09/1982,5.336,1.613
03/10/1982,5.415,1.438
03/11/1982,5.424,1.388
03/12/1982,5.491,1.423
03/13/1982,5.495,1.427
03/14/1982,5.500,1.402
03/15/1982,5.566,1.377
03/16/1982,5.833,1.613
03/17/1982,5.840,1.617
03/18/1982,5.911,1.707
03/19/1982,6.225,2.086
03/20/1982,6.399,2.240
03/21/1982,6.402,2.245
03/22/1982,6.402,2.245
03/23/1982,6.458,2.235
03/24/1982,6.628,2.398
03/25/1982,6.642,2.412
03/26/1982,6.642,2.412
03/27/1982,6.642,2.242
03/28/1982,6.647,2.030
03/29/1982,6.659,1.899
03/30/1982,6.686,1.902
03/31/1982,6.765,1.986
04/01/1982,6.874,2.031
04/02/1982,7.086,2.368
04/03/1982,7.188,2.484
04/04/1982,7.227,2.527
04/05/1982,7.248,2.539
04/06/1982,7.311,2.576
04/07/1982,7.813,3.261
04/08/1982,7.911,3.347
04/09/1982,8.006,3.407
04/10/1982,8.036,3.398
04/11/1982,8.036,2.665
04/12/1982,8.062,2.280
04/13/1982,8.065,2.142
04/14/1982,8.071,2.059
04/15/1982,8.137,2.114
04/16/1982,8.147,2.124
04/17/1982,8.149,2.126
04/18/1982,8.178,2.148
04/19/1982,8.223,2.178
04/20/1982,8.234,2.182
04/21/1982,8.234,2.179
04/22/1982,8.234,2.100
04/23/1982,8.234,1.956
04/24/1982,8.266,1.846
04/25/1982,8.411,1.852
04/26/1982,8.416,1.844
04/27/1982,8.416,1.781
04/28/1982,8.416,1.737
04/29/1982,8.434,1.703
04/30/1982,8.435,1.694
05/01/1982,8.435,1.601
05/02/1982,8.435,1.475
05/03/1982,8.435,1.335
05/04/1982,8.463,1.269
05/05/1982,8.464,1.270
05/06/1982,8.472,1.266
05/07/1982,8.476,1.229
05/08/1982,8.647,1.209
05/09/1982,8.978,1.319
05/10/1982,9.171,1.399
05/11/1982,9.179,1.389
05/12/1982,9.184,1.345
05/13/1982,9.186,1.262
05/14/1982,9.186,1.220
05/15/1982,9.204,1.168
05/16/1982,9.204,1.120
05/17/1982,9.204,1.065
05/18/1982,9.208,0.992
05/19/1982,9.643,0.933
05/20/1982,9.807,0.924
05/21/1982,9.815,0.886
05/22/1982,9.826,0.823
05/23/1982,9.841,0.768
05/24/1982,9.931,0.741
05/25/1982,9.931,0.702
05/26/1982,9.931,0.643
05/27/1982,10.327,0.605
05/28/1982,11.437,0.656
05/29/1982,12.682,1.032
05/30/1982,12.989,1.156
05/31/1982,13.024,1.156
06/01/1982,13.026,0.985
06/02/1982,13.137,0.919
06/03/1982,13.269,0.818
06/04/1982,13.271,0.764
06/05/1982,13.355,0.729
06/06/1982,13.884,0.710
06/07/1982,14.323,0.739
06/08/1982,15.030,0.758
06/09/1982,15.274,0.755
06/10/1982,15.293,0.711
06/11/1982,15.300,0.654
06/12/1982,15.318,0.593
06/13/1982,15.331,0.534
06/14/1982,15.417,0.487
06/15/1982,15.502,0.442
06/16/1982,15.577,0.400
06/17/1982,15.755,0.363
06/18/1982,15.922,0.334
06/19/1982,15.923,0.298
06/20/1982,15.923,0.255
06/21/1982,15.924,0.212
06/22/1982,15.928,0.173
06/23/1982,16.015,0.140
06/24/1982,16.125,0.121
06/25/1982,16.128,0.101
06/26/1982,16.146,0.083
06/27/1982,16.150,0.066
06/28/1982,16.641,0.053
06/29/1982,16.657,0.040
06/30/1982,16.657,0.032
07/01/1982,16.658,0.026
07/02/1982,16.866,0.021
07/03/1982,16.869,0.017
07/04/1982,16.873,0.014
07/05/1982,16.873,0.013
07/06/1982,16.873,0.012
07/07/1982,16.873,0.010
07/08/1982,17.011,0.008
07/09/1982,17.063,0.006
07/10/1982,17.196,0.005
07/11/1982,17.201,0.003
07/12/1982,17.377,0.002
07/13/1982,17.392,0.001
07/14/1982,17.737,0.001
07/15/1982,17.760,0.000
07/16/1982,18.200,0.000
07/17/1982,18.237,0.000
07/18/1982,18.243,0.000
07/19/1982,18.243,0.000
07/20/1982,18.261,0.000
07/21/1982,18.362,0.000
07/22/1982,18.363,0.000
07/23/1982,18.377,0.000
07/24/1982,18.377,0.000
07/25/1982,18.640,0.000
07/26/1982,18.820,0.000
07/27/1982,18.820,0.000
07/28/1982,18.820,0.000
07/29/1982,18.820,0.000
07/30/1982,18.820,0.000
07/31/1982,18.841,0.000
08/01/1982,18.874,0.000
08/02/1982,18.876,0.000
08/03/1982,18.876,0.000
08/04/1982,18.878,0.000
08/05/1982,18.930,0.000
08/06/1982,18.934,0.000
08/07/1982,18.934,0.000
08/08/1982,18.936,0.000
08/09/1982,19.078,0.000
08/10/1982,19.150,0.000
08/11/1982,19.155,0.000
08/12/1982,19.193,0.000
08/13/1982,19.193,0.000
08/14/1982,19.194,0.000
08/15/1982,19.270,0.000
08/16/1982,19.277,0.000
08/17/1982,19.377,0.000
08/18/1982,19.403,0.000
08/19/1982,19.403,0.000
08/20/1982,19.466,0.000
08/21/1982,19.467,0.000
08/22/1982,19.477,0.000
08/23/1982,19.487,0.000
08/24/1982,19.487,0.000
08/25/1982,19.487,0.000
08/26/1982,19.487,0.000
08/27/1982,19.487,0.000
08/28/1982,19.491,0.000
08/29/1982,19.492,0.000
08/30/1982,19.562,0.000
08/31/1982,19.607,0.000
09/01/1982,19.615,0.000
09/02/1982,19.615,0.000
09/03/1982,19.615,0.000
09/04/1982,19.615,0.000
09/05/1982,19.615,0.000
09/06/1982,19.616,0.000
09/07/1982,19.616,0.000
09/08/1982,19.619,0.000
09/09/1982,19.622,0.000
09/10/1982,19.622,0.000
09/11/1982,19.627,0.000
09/12/1982,19.634,0.003
09/13/1982,19.751,0.016
09/14/1982,20.003,0.130
09/15/1982,20.055,0.126
09/16/1982,20.059,0.073
09/17/1982,20.074,0.029
09/18/1982,20.079,0.007
09/19/1982,20.079,0.001
09/20/1982,20.079,0.000
09/21/1982,20.079,0.000
09/22/1982,20.085,0.000
09/23/1982,20.085,0.000
09/24/1982,20.085,0.000
09/25/1982,20.088,0.000
09/26/1982,20.090,0.000
09/27/1982,20.767,0.003
09/28/1982,21.405,0.065
09/29/1982,21.539,0.079
09/30/1982,21.574,0.084
10/01/1982,0.032,0.092
10/02/1982,0.252,0.089
10/03/1982,0.271,0.058
10/04/1982,0.393,0.055
10/05/1982,0.784,0.083
10/06/1982,0.804,0.096
10/07/1982,0.814,0.091
10/08/1982,0.983,0.096
10/09/1982,0.995,0.107
10/10/1982,0.995,0.107
10/11/1982,0.995,0.106
10/12/1982,0.995,0.092
10/13/1982,0.995,0.079
10/14/1982,0.995,0.061
10/15/1982,0.995,0.041
10/16/1982,1.012,0.029
10/17/1982,1.014,0.022
10/18/1982,1.079,0.025
10/19/1982,1.171,0.117
10/20/1982,1.171,0.116
10/21/1982,1.171,0.079
10/22/1982,1.171,0.052
10/23/1982,1.171,0.032
10/24/1982,1.171,0.023
10/25/1982,1.178,0.020
10/26/1982,1.178,0.018
10/27/1982,1.325,0.028
10/28/1982,1.325,0.028
10/29/1982,1.357,0.044
10/30/1982,1.412,0.084
10/31/1982,1.420,0.085
11/01/1982,1.420,0.085
11/02/1982,1.493,0.141
11/03/1982,1.502,0.152
11/04/1982,1.502,0.152
11/05/1982,1.502,0.134
11/06/1982,1.502,0.119
11/07/1982,1.511,0.133
11/08/1982,1.517,0.139
11/09/1982,1.517,0.140
11/10/1982,1.557,0.176
11/11/1982,1.561,0.179
11/12/1982,1.648,0.259
11/13/1982,1.669,0.278
11/14/1982,1.710,0.312
11/15/1982,1.710,0.312
11/16/1982,1.712,0.303
11/17/1982,1.712,0.278
11/18/1982,1.713,0.211
11/19/1982,1.722,0.216
11/20/1982,1.728,0.220
11/21/1982,1.750,0.236
11/22/1982,1.816,0.316
11/23/1982,1.827,0.325
11/24/1982,1.827,0.325
11/25/1982,1.827,0.325
11/26/1982,1.827,0.325
11/27/1982,1.827,0.325
11/28/1982,1.827,0.305
11/29/1982,1.827,0.283
11/30/1982,1.832,0.282
12/01/1982,1.834,0.282
12/02/1982,2.333,0.860
12/03/1982,2.343,0.871
12/04/1982,2.348,0.790
12/05/1982,2.348,0.787
12/06/1982,2.367,0.819
12/07/1982,2.496,0.957
12/08/1982,2.498,0.959
12/09/1982,2.498,0.959
12/10/1982,2.499,0.960
12/11/1982,2.499,0.960
12/12/1982,2.499,0.960
12/13/1982,2.499,0.954
12/14/1982,2.722,1.285
12/15/1982,2.727,1.291
12/16/1982,2.727,1.171
12/17/1982,2.738,1.110
12/18/1982,2.750,1.078
12/19/1982,2.759,1.087
12/20/1982,2.767,1.096
12/21/1982,2.775,1.094
12/22/1982,2.780,1.020
12/23/1982,2.840,1.114
12/24/1982,3.126,1.656
12/25/1982,3.127,1.657
12/26/1982,3.127,1.657
12/27/1982,3.158,1.678
12/28/1982,3.201,1.719
12/29/1982,3.235,1.762
12/30/1982,3.293,1.810
12/31/1982,3.297,1.814
01/01/1983,3.297,1.814
01/02/1983,3.297,1.814
01/03/1983,3.297,1.814
01/04/1983,3.299,1.816
01/05/1983,3.302,1.806
01/06/1983,3.323,1.621
01/07/1983,3.340,1.630
01/08/1983,3.370,1.483
01/09/1983,3.414,1.514
01/10/1983,3.416,1.514
01/11/1983,3.424,1.523
01/12/1983,3.424,1.486
01/13/1983,3.424,1.392
01/14/1983,3.425,1.394
01/15/1983,3.425,1.394
01/16/1983,3.425,1.394
01/17/1983,3.425,1.394
01/18/1983,3.425,1.394
01/19/1983,3.425,1.394
01/20/1983,3.427,1.395
01/21/1983,3.427,1.395
01/22/1983,3.430,1.402
01/23/1983,3.432,1.405
01/24/1983,3.451,1.442
01/25/1983,3.472,1.481
01/26/1983,3.473,1.482
01/27/1983,3.473,1.446
01/28/1983,3.474,1.378
01/29/1983,3.477,1.383
01/30/1983,3.479,1.385
01/31/1983,3.479,1.385
02/01/1983,3.499,1.420
02/02/1983,3.567,1.529
02/03/1983,3.577,1.538
02/04/1983,3.579,1.539
02/05/1983,3.581,1.541
02/06/1983,3.581,1.541
02/07/1983,3.588,1.544
02/08/1983,3.613,1.574
02/09/1983,3.615,1.576
02/10/1983,3.633,1.451
02/11/1983,3.639,1.459
02/12/1983,3.639,1.413
02/13/1983,3.639,1.307
02/14/1983,3.639,1.263
02/15/1983,3.639,1.230
02/16/1983,3.648,1.216
02/17/1983,3.708,1.285
02/18/1983,3.763,1.313
02/19/1983,3.819,1.238
02/20/1983,3.838,1.245
02/21/1983,3.838,1.230
02/22/1983,3.838,1.221
02/23/1983,3.838,1.204
02/24/1983,3.839,1.189
02/25/1983,3.839,1.145
02/26/1983,3.864,1.119
02/27/1983,3.900,1.150
02/28/1983,3.901,1.149
03/01/1983,3.903,1.146
03/02/1983,3.904,1.131
03/03/1983,3.906,1.114
03/04/1983,3.909,1.090
03/05/1983,3.909,1.088
03/06/1983,3.916,1.096
03/07/1983,3.916,1.096
03/08/1983,3.916,1.096
03/09/1983,3.917,1.086
03/10/1983,3.936,1.054
03/11/1983,3.936,0.987
03/12/1983,4.066,0.947
03/13/1983,4.088,0.965
03/14/1983,4.101,0.970
03/15/1983,4.102,0.972
03/16/1983,4.123,0.981
03/17/1983,4.190,1.039
03/18/1983,4.243,1.105
03/19/1983,4.345,1.220
03/20/1983,4.354,1.225
03/21/1983,4.354,1.225
03/22/1983,4.354,1.225
03/23/1983,4.354,1.223
03/24/1983,4.514,1.164
03/25/1983,4.634,1.201
03/26/1983,4.681,1.235
03/27/1983,4.684,1.236
03/28/1983,4.779,1.275
03/29/1983,4.810,1.291
03/30/1983,4.811,1.283
03/31/1983,4.821,1.288
04/01/1983,4.876,1.323
04/02/1983,4.923,1.344
04/03/1983,4.992,1.380
04/04/1983,5.031,1.406
04/05/1983,5.063,1.428
04/06/1983,5.064,1.429
04/07/1983,5.064,1.418
04/08/1983,5.064,1.402
04/09/1983,5.072,1.396
04/10/1983,5.132,1.405
04/11/1983,5.172,1.420
04/12/1983,5.245,1.492
04/13/1983,5.248,1.495
04/14/1983,5.255,1.500
04/15/1983,5.268,1.490
04/16/1983,5.268,1.484
04/17/1983,5.268,1.458
04/18/1983,5.268,1.411
04/19/1983,5.268,1.339
04/20/1983,5.268,1.271
04/21/1983,5.273,1.201
04/22/1983,5.404,1.117
04/23/1983,5.426,1.053
04/24/1983,5.426,0.978
04/25/1983,5.511,0.966
04/26/1983,5.553,0.999
04/27/1983,5.555,0.994
04/28/1983,5.602,1.008
04/29/1983,5.605,1.008
04/30/1983,5.605,0.969
05/01/1983,5.605,0.957
05/02/1983,5.605,0.950
05/03/1983,5.605,0.920
05/04/1983,5.605,0.898
05/05/1983,5.605,0.863
05/06/1983,5.645,0.823
05/07/1983,5.760,0.833
05/08/1983,5.761,0.797
05/09/1983,6.019,0.784
05/10/1983,6.521,0.929
05/11/1983,6.730,1.047
05/12/1983,6.912,1.231
05/13/1983,7.145,1.465
05/14/1983,7.156,1.205
05/15/1983,7.156,1.055
05/16/1983,7.169,0.970
05/17/1983,7.173,0.919
05/18/1983,7.309,0.877
05/19/1983,7.411,0.893
05/20/1983,7.418,0.865
05/21/1983,7.465,0.813
05/22/1983,7.495,0.785
05/23/1983,7.495,0.731
05/24/1983,7.495,0.653
05/25/1983,7.495,0.581
05/26/1983,7.497,0.503
05/27/1983,7.499,0.428
05/28/1983,7.499,0.370
05/29/1983,7.499,0.315
05/30/1983,7.499,0.275
05/31/1983,7.499,0.265
06/01/1983,7.499,0.243
06/02/1983,7.560,0.226
06/03/1983,7.570,0.211
06/04/1983,7.574,0.195
06/05/1983,7.605,0.188
06/06/1983,7.716,0.175
06/07/1983,7.718,0.160
06/08/1983,7.739,0.140
06/09/1983,7.759,0.119
06/10/1983,7.772,0.099
06/11/1983,7.784,0.082
06/12/1983,8.283,0.083
06/13/1983,8.453,0.081
06/14/1983,8.477,0.079
06/15/1983,8.477,0.070
06/16/1983,8.900,0.061
06/17/1983,9.003,0.057
06/18/1983,9.168,0.049
06/19/1983,9.189,0.046
06/20/1983,9.191,0.044
06/21/1983,9.261,0.042
06/22/1983,9.360,0.040
06/23/1983,9.360,0.036
06/24/1983,9.360,0.029
06/25/1983,9.362,0.025
06/26/1983,9.364,0.021
06/27/1983,9.364,0.017
06/28/1983,9.524,0.015
06/29/1983,9.872,0.013
06/30/1983,10.053,0.011
07/01/1983,10.053,0.010
07/02/1983,10.210,0.008
07/03/1983,10.399,0.007
07/04/1983,10.442,0.007
07/05/1983,10.500,0.006
07/06/1983,10.502,0.004
07/07/1983,10.595,0.002
07/08/1983,10.607,0.001
07/09/1983,10.666,0.001
07/10/1983,12.143,0.000
07/11/1983,12.479,0.000
07/12/1983,12.575,0.000
07/13/1983,12.575,0.000
07/14/1983,12.577,0.000
07/15/1983,12.641,0.000
07/16/1983,12.641,0.000
07/17/1983,12.641,0.000
07/18/1983,12.782,0.000
07/19/1983,12.784,0.000
07/20/1983,12.790,0.000
07/21/1983,12.791,0.000
07/22/1983,12.791,0.000
07/23/1983,12.791,0.000
07/24/1983,12.791,0.000
07/25/1983,12.811,0.000
07/26/1983,12.812,0.000
07/27/1983,12.864,0.000
07/28/1983,12.896,0.000
07/29/1983,12.920,0.000
07/30/1983,12.925,0.000
07/31/1983,12.925,0.000
08/01/1983,12.925,0.000
08/02/1983,12.925,0.000
08/03/1983,12.925,0.000
08/04/1983,12.927,0.000
08/05/1983,12.933,0.000
08/06/1983,12.933,0.000
08/07/1983,12.933,0.000
08/08/1983,12.936,0.000
08/09/1983,12.945,0.000
08/10/1983,13.022,0.000
08/11/1983,13.032,0.000
08/12/1983,13.077,0.000
08/13/1983,13.077,0.000
08/14/1983,13.077,0.000
08/15/1983,13.086,0.000
08/16/1983,13.086,0.000
08/17/1983,13.086,0.000
08/18/1983,13.086,0.000
08/19/1983,13.086,0.000
08/20/1983,13.086,0.000
08/21/1983,13.112,0.000
08/22/1983,13.574,0.000
08/23/1983,13.660,0.000
08/24/1983,13.660,0.000
08/25/1983,13.664,0.000
08/26/1983,13.669,0.000
08/27/1983,13.745,0.000
08/28/1983,13.745,0.000
08/29/1983,13.745,0.000
08/30/1983,13.745,0.000
08/31/1983,13.745,0.000
09/01/1983,13.745,0.000
09/02/1983,13.775,0.000
09/03/1983,13.786,0.000
09/04/1983,13.787,0.000
09/05/1983,13.793,0.000
09/06/1983,13.846,0.000
09/07/1983,13.847,0.000
09/08/1983,13.866,0.000
09/09/1983,14.479,0.000
09/10/1983,14.481,0.000
09/11/1983,14.564,0.000
09/12/1983,14.612,0.000
09/13/1983,14.612,0.000
09/14/1983,14.617,0.000
09/15/1983,14.617,0.000
09/16/1983,14.618,0.000
09/17/1983,14.621,0.000
09/18/1983,14.684,0.000
09/19/1983,15.258,0.124
09/20/1983,15.312,0.149
09/21/1983,15.312,0.135
09/22/1983,15.312,0.101
09/23/1983,15.312,0.061
09/24/1983,15.312,0.017
09/25/1983,15.312,0.002
09/26/1983,15.312,0.000
09/27/1983,15.312,0.000
09/28/1983,15.415,0.000
09/29/1983,15.458,0.015
09/30/1983,15.796,0.135
10/01/1983,0.017,0.085
10/02/1983,0.023,0.054
10/03/1983,0.039,0.039
10/04/1983,0.041,0.031
10/05/1983,0.043,0.023
10/06/1983,0.051,0.020
10/07/1983,0.051,0.012
10/08/1983,0.051,0.012
10/09/1983,0.051,0.008
10/10/1983,0.124,0.006
10/11/1983,0.166,0.032
10/12/1983,0.167,0.031
10/13/1983,0.170,0.020
10/14/1983,0.170,0.011
10/15/1983,0.665,0.081
10/16/1983,0.830,0.139
10/17/1983,0.984,0.146
10/18/1983,1.143,0.169
10/19/1983,1.326,0.233
10/20/1983,1.326,0.209
10/21/1983,1.326,0.185
10/22/1983,1.326,0.158
10/23/1983,1.518,0.129
10/24/1983,1.621,0.182
10/25/1983,1.621,0.178
10/26/1983,1.621,0.141
10/27/1983,1.621,0.112
10/28/1983,1.621,0.089
10/29/1983,1.621,0.077
10/30/1983,1.621,0.065
10/31/1983,1.621,0.054
11/01/1983,1.621,0.049
11/02/1983,1.621,0.046
11/03/1983,1.621,0.044
11/04/1983,1.621,0.042
11/05/1983,1.640,0.042
11/06/1983,1.649,0.042
11/07/1983,1.732,0.081
11/08/1983,1.749,0.099
11/09/1983,1.749,0.099
11/10/1983,1.804,0.122
11/11/1983,1.816,0.122
11/12/1983,1.853,0.148
11/13/1983,1.853,0.143
11/14/1983,1.862,0.151
11/15/1983,1.863,0.152
11/16/1983,1.866,0.155
11/17/1983,1.869,0.156
11/18/1983,1.873,0.161
11/19/1983,1.885,0.173
11/20/1983,1.922,0.209
11/21/1983,2.005,0.291
11/22/1983,2.048,0.341
11/23/1983,2.049,0.342
11/24/1983,2.053,0.348
11/25/1983,2.150,0.410
11/26/1983,2.515,0.792
11/27/1983,2.517,0.795
11/28/1983,2.617,0.887
11/29/1983,2.740,1.010
11/30/1983,2.761,1.031
12/01/1983,2.761,1.031
12/02/1983,2.761,1.031
12/03/1983,2.761,1.031
12/04/1983,2.761,1.031
12/05/1983,2.776,1.050
12/06/1983,2.783,1.067
12/07/1983,2.878,1.187
12/08/1983,2.996,1.320
12/09/1983,2.996,1.320
12/10/1983,3.003,1.326
12/11/1983,3.016,1.347
12/12/1983,3.067,1.391
12/13/1983,3.091,1.416
12/14/1983,3.124,1.446
12/15/1983,3.143,1.471
12/16/1983,3.215,1.549
12/17/1983,3.297,1.625
12/18/1983,3.312,1.640
12/19/1983,3.332,1.663
12/20/1983,3.419,1.738
12/21/1983,3.430,1.751
12/22/1983,3.437,1.760
12/23/1983,3.437,1.760
12/24/1983,3.445,1.767
12/25/1983,3.445,1.767
12/26/1983,3.448,1.772
12/27/1983,3.510,1.858
12/28/1983,3.564,1.929
12/29/1983,3.565,1.930
12/30/1983,3.569,1.936
12/31/1983,3.569,1.903
01/01/1984,3.569,1.903
01/02/1984,3.569,1.903
01/03/1984,3.610,1.889
01/04/1984,3.613,1.543
01/05/1984,3.618,1.430
01/06/1984,3.620,1.380
01/07/1984,3.622,1.331
01/08/1984,3.622,1.311
01/09/1984,3.630,1.326
01/10/1984,3.631,1.328
01/11/1984,3.633,1.324
01/12/1984,3.767,1.590
01/13/1984,3.886,1.790
01/14/1984,3.995,1.965
01/15/1984,4.066,2.047
01/16/1984,4.201,2.310
01/17/1984,4.220,2.325
01/18/1984,4.233,2.336
01/19/1984,4.246,2.345
01/20/1984,4.246,2.345
01/21/1984,4.246,2.345
01/22/1984,4.250,2.349
01/23/1984,4.250,2.349
01/24/1984,4.250,2.349
01/25/1984,4.250,1.988
01/26/1984,4.257,1.983
01/27/1984,4.257,1.953
01/28/1984,4.265,1.885
01/29/1984,4.457,1.932
01/30/1984,4.473,1.953
01/31/1984,4.473,1.904
02/01/1984,4.473,1.851
02/02/1984,4.474,1.849
02/03/1984,4.474,1.834
02/04/1984,4.477,1.837
02/05/1984,4.479,1.818
02/06/1984,4.481,1.817
02/07/1984,4.485,1.727
02/08/1984,4.485,1.695
02/09/1984,4.485,1.671
02/10/1984,4.485,1.628
02/11/1984,4.485,1.628
02/12/1984,4.486,1.622
02/13/1984,4.490,1.598
02/14/1984,4.561,1.582
02/15/1984,4.567,1.591
02/16/1984,4.573,1.598
02/17/1984,4.718,1.766
02/18/1984,4.800,1.872
02/19/1984,4.800,1.872
02/20/1984,4.800,1.866
02/21/1984,4.802,1.775
02/22/1984,5.095,1.889
02/23/1984,5.133,1.938
02/24/1984,5.144,1.952
02/25/1984,5.144,1.952
02/26/1984,5.221,2.053
02/27/1984,5.254,2.073
02/28/1984,5.256,2.074
02/29/1984,5.258,2.075
03/01/1984,5.258,1.978
03/02/1984,5.271,1.907
03/03/1984,5.276,1.908
03/04/1984,5.403,2.016
03/05/1984,5.447,2.054
03/06/1984,5.604,2.246
03/07/1984,5.659,2.302
03/08/1984,5.659,2.302
03/09/1984,5.783,2.425
03/10/1984,5.783,2.425
03/11/1984,5.855,2.469
03/12/1984,5.922,2.481
03/13/1984,5.955,2.445
03/14/1984,6.054,2.570
03/15/1984,6.163,2.665
03/16/1984,6.195,2.686
03/17/1984,6.195,2.676
03/18/1984,6.197,2.556
03/19/1984,6.197,2.493
03/20/1984,6.198,2.409
03/21/1984,6.198,2.364
03/22/1984,6.278,2.406
03/23/1984,6.278,2.390
03/24/1984,6.282,2.345
03/25/1984,6.516,2.593
03/26/1984,6.529,2.517
03/27/1984,6.762,2.643
03/28/1984,6.829,2.705
03/29/1984,6.829,2.661
03/30/1984,6.903,2.703
03/31/1984,6.937,2.731
04/01/1984,6.940,2.728
04/02/1984,7.121,2.871
04/03/1984,7.122,2.835
04/04/1984,7.125,2.782
04/05/1984,7.126,2.678
04/06/1984,7.126,2.542
04/07/1984,7.457,2.524
04/08/1984,7.462,2.465
04/09/1984,7.471,2.403
04/10/1984,7.471,2.380
04/11/1984,7.643,2.444
04/12/1984,7.671,2.473
04/13/1984,7.671,2.471
04/14/1984,7.671,2.455
04/15/1984,7.671,2.344
04/16/1984,7.674,2.144
04/17/1984,7.674,1.871
04/18/1984,7.674,1.659
04/19/1984,7.760,1.608
04/20/1984,7.937,1.570
04/21/1984,7.940,1.538
04/22/1984,7.940,1.509
04/23/1984,7.940,1.453
04/24/1984,7.944,1.456
04/25/1984,8.004,1.500
04/26/1984,8.209,1.683
04/27/1984,8.317,1.790
04/28/1984,8.319,1.792
04/29/1984,8.320,1.777
04/30/1984,8.320,1.771
05/01/1984,8.320,1.732
05/02/1984,8.320,1.638
05/03/1984,8.320,1.574
05/04/1984,8.320,1.564
05/05/1984,8.337,1.569
05/06/1984,8.702,1.669
05/07/1984,8.763,1.706
05/08/1984,8.769,1.697
05/09/1984,8.769,1.627
05/10/1984,8.769,1.576
05/11/1984,8.769,1.553
05/12/1984,8.771,1.506
05/13/1984,8.773,1.402
05/14/1984,8.779,1.267
05/15/1984,8.855,1.068
05/16/1984,8.877,0.971
05/17/1984,8.892,0.959
05/18/1984,8.894,0.931
05/19/1984,8.896,0.877
05/20/1984,8.898,0.830
05/21/1984,8.900,0.804
05/22/1984,8.908,0.804
05/23/1984,8.912,0.776
05/24/1984,8.932,0.742
05/25/1984,9.078,0.745
05/26/1984,9.093,0.741
05/27/1984,9.497,0.720
05/28/1984,9.503,0.698
05/29/1984,9.503,0.647
05/30/1984,9.550,0.540
05/31/1984,9.562,0.450
06/01/1984,9.567,0.440
06/02/1984,9.571,0.437
06/03/1984,9.571,0.413
06/04/1984,9.572,0.383
06/05/1984,9.610,0.357
06/06/1984,9.717,0.341
06/07/1984,9.881,0.330
06/08/1984,9.881,0.317
06/09/1984,9.887,0.305
06/10/1984,9.887,0.300
06/11/1984,10.582,0.302
06/12/1984,11.185,0.305
06/13/1984,11.208,0.289
06/14/1984,11.301,0.273
06/15/1984,11.301,0.241
06/16/1984,11.374,0.207
06/17/1984,11.385,0.189
06/18/1984,11.407,0.173
06/19/1984,11.413,0.156
06/20/1984,11.439,0.138
06/21/1984,11.556,0.125
06/22/1984,11.571,0.117
06/23/1984,11.578,0.115
06/24/1984,11.578,0.105
06/25/1984,11.587,0.088
06/26/1984,11.589,0.071
06/27/1984,11.593,0.060
06/28/1984,11.593,0.051
06/29/1984,11.597,0.040
06/30/1984,11.604,0.031
07/01/1984,11.604,0.029
07/02/1984,11.604,0.025
07/03/1984,11.604,0.021
07/04/1984,11.604,0.018
07/05/1984,11.604,0.014
07/06/1984,11.604,0.010
07/07/1984,11.643,0.007
07/08/1984,11.652,0.005
07/09/1984,11.652,0.004
07/10/1984,11.652,0.003
07/11/1984,11.652,0.002
07/12/1984,11.657,0.001
07/13/1984,11.657,0.000
07/14/1984,11.657,0.000
07/15/1984,11.657,0.000
07/16/1984,11.657,0.000
07/17/1984,11.660,0.000
07/18/1984,11.660,0.000
07/19/1984,11.661,0.000
07/20/1984,11.661,0.000
07/21/1984,11.661,0.000
07/22/1984,11.666,0.000
07/23/1984,11.670,0.000
07/24/1984,11.670,0.000
07/25/1984,11.670,0.000